Wind_Speed
12 13 13 14 14 16 17 18 20 21 21 21 21 20 19 17 16 17 19 19 20 20 21 22 22 22 21 19 18 17 16 15 14 14 12 13 15 15 14 14 13 13 14 15 16 13 12 13 13 12 11 9 7 6 6 9 13 17 18 16 16 14 12 11 10 10 9 10 11 9 10 9 4 4 5 4 3 4 5 6 4 5 6 6 7 7 6 6
12 13 13 14 15 16 17 18 19 19 20 19 19 18 15 13 14 15 16 17 18 18 20 21 21 21 20 19 18 17 15 15 14 11 10 14 17 17 15 15 15 15 16 18 17 14 14 15 14 12 11 9 9 8 8 11 14 15 14 14 14 12 10 10 9 10 10 10 10 9 9 8 3 4 4 3 3 4 5 4 1 5 5 5 7 8 7 6
12 13 14 14 15 15 16 17 17 18 18 18 17 15 12 11 12 13 14 14 15 16 17 18 19 19 19 18 17 16 15 14 12 10 11 13 14 17 17 17 16 17 19 20 18 15 16 16 13 12 11 11 11 9 10 13 13 13 11 12 13 11 11 11 10 11 10 11 12 12 10 8 6 7 5 5 5 7 6 3 2 4 5 5 8 11 9 7
12 13 13 14 14 14 14 15 16 16 16 16 15 12 10 10 11 11 10 11 11 13 14 15 16 17 17 17 16 15 14 13 12 11 11 10 13 17 18 17 18 19 22 21 19 18 16 14 13 12 12 13 13 11 13 13 13 12 10 11 12 10 12 11 9 10 10 12 13 13 12 10 10 11 10 9 10 11 9 8 7 4 4 6 10 14 12 8
13 13 13 13 13 13 13 14 15 15 15 14 13 10 8 8 8 8 8 8 9 10 11 12 13 14 15 16 15 15 14 12 12 13 10 8 12 18 18 18 19 22 24 22 21 19 15 13 12 12 13 15 14 12 13 12 13 13 11 10 10 10 12 12 9 9 11 12 12 12 13 13 13 13 13 12 11 12 11 11 11 7 7 9 11 14 13 10
12 12 12 12 11 11 12 13 14 14 14 13 10 7 6 6 6 6 7 8 10 11 11 12 12 12 13 14 15 15 14 12 12 15 13 10 11 15 18 19 20 24 24 22 22 18 14 14 13 13 15 15 14 13 13 12 12 12 11 9 8 8 10 12 10 9 11 12 11 12 14 13 14 13 14 13 10 9 9 10 10 8 8 11 12 14 14 12
12 12 11 11 10 11 12 13 14 14 14 11 7 6 5 5 5 6 8 9 10 11 11 12 12 12 12 14 15 15 16 12 11 16 15 12 10 11 18 20 20 24 23 22 21 17 14 15 13 14 16 17 16 15 13 13 13 12 11 9 9 8 8 11 12 11 12 11 12 13 14 13 13 13 13 13 11 9 8 8 9 9 9 10 11 12 13 13
11 11 10 10 10 11 12 13 13 14 13 9 6 5 5 5 6 7 8 10 10 10 10 11 12 13 13 13 15 16 17 13 13 17 16 14 12 12 18 21 21 23 22 22 20 16 15 15 14 14 16 17 17 16 14 14 14 12 11 9 9 10 8 10 12 13 12 10 10 12 12 12 13 11 11 14 13 9 7 8 10 10 10 11 10 9 10 11
11 10 10 9 10 11 12 12 13 13 11 7 5 5 5 5 5 6 8 8 8 7 8 9 11 12 13 14 15 16 18 15 15 17 16 15 15 16 20 21 20 21 21 21 19 16 16 16 15 14 15 17 18 18 16 15 14 11 10 8 9 10 9 9 11 12 10 8 9 10 11 11 11 8 9 13 12 9 7 7 10 10 10 11 11 10 10 11
11 10 9 9 10 11 11 12 12 12 9 6 5 4 4 4 4 6 6 5 3 2 3 6 8 11 13 14 16 17 18 17 15 17 18 16 16 19 21 20 19 19 21 21 18 16 16 17 15 15 15 16 17 18 16 14 14 11 10 10 9 11 10 9 10 11 8 7 7 6 10 11 9 9 12 14 11 9 7 7 9 9 9 10 11 11 12 13
11 10 9 9 10 11 11 11 11 11 7 5 4 3 3 3 3 4 4 5 4 3 2 4 7 10 13 15 18 19 20 19 15 16 19 18 19 21 21 20 19 19 21 20 17 16 17 17 15 15 15 15 17 17 15 14 13 10 11 12 12 12 10 9 10 10 8 7 6 3 8 12 10 14 16 15 12 10 8 8 9 9 9 10 11 11 10 11
11 10 9 9 10 10 10 10 10 10 6 4 3 3 2 2 1 3 5 7 7 7 7 6 7 10 14 16 19 21 21 19 17 18 21 20 21 22 21 22 21 21 22 19 17 17 18 16 16 15 13 15 16 14 13 12 9 9 12 14 15 14 12 12 12 10 9 7 7 5 6 12 12 15 16 15 13 11 9 10 10 10 9 10 10 9 9 9
11 10 9 9 10 10 10 9 9 9 6 4 3 2 1 0 1 3 6 7 8 8 8 8 8 11 14 16 18 20 21 20 18 21 24 22 21 21 22 24 23 23 21 19 18 18 18 17 15 15 13 15 14 12 12 9 6 10 11 13 16 17 15 14 13 10 9 9 8 7 2 9 11 12 13 14 14 11 10 11 12 11 10 10 10 10 10 10
11 10 9 9 9 9 9 9 9 8 5 4 3 2 2 2 3 5 7 8 9 9 8 8 9 10 12 15 17 19 21 22 21 22 24 22 21 21 23 25 23 22 21 19 18 17 18 16 15 14 13 14 12 11 13 8 5 10 12 14 17 17 16 15 13 12 11 10 9 7 1 6 8 9 11 13 13 10 10 12 13 12 11 11 12 12 12 13
11 10 9 9 9 9 9 8 8 7 5 4 3 3 3 4 5 6 8 9 10 10 10 8 8 8 10 14 15 18 22 24 23 23 25 23 22 21 23 25 23 21 20 20 18 16 16 15 15 14 13 13 11 12 12 8 8 11 13 16 18 17 16 15 15 14 12 10 10 8 3 4 6 7 9 12 12 10 10 11 11 11 11 11 12 13 13 14
10 10 9 9 9 8 8 7 7 7 5 4 4 4 5 6 6 7 8 9 9 9 9 9 8 8 9 11 14 17 21 25 25 25 26 25 23 21 21 23 22 20 19 18 17 16 16 16 15 14 13 13 13 13 10 8 12 14 14 17 18 17 16 16 14 15 14 12 12 9 5 2 4 6 9 11 11 9 9 10 10 10 11 11 13 13 14 15
10 9 9 9 9 8 8 7 6 6 5 5 4 5 6 8 8 7 7 8 9 9 9 10 10 9 8 10 13 18 22 25 26 26 27 26 23 20 20 20 19 18 17 16 14 14 16 16 16 15 14 14 15 12 8 8 12 15 16 18 18 18 17 16 14 15 16 15 14 12 8 4 2 6 9 10 11 9 7 8 9 9 10 11 12 14 15 15
10 9 9 9 9 8 8 7 6 6 6 5 5 6 7 9 9 6 6 7 9 10 10 11 11 9 9 11 14 18 21 23 26 27 27 26 22 19 20 20 18 17 16 15 12 12 14 14 14 15 14 15 15 11 6 8 11 12 16 18 18 18 18 16 14 14 17 18 17 14 11 7 5 7 8 10 11 8 5 6 7 7 8 10 12 14 15 16
11 9 8 9 9 9 8 7 6 6 6 6 6 6 7 10 10 8 6 7 8 8 7 7 7 8 10 12 14 17 20 23 24 26 25 23 21 19 21 20 18 17 16 15 13 13 14 13 14 15 14 13 10 8 6 7 10 11 13 16 16 17 19 17 13 13 16 18 19 15 12 9 8 7 7 10 11 9 5 4 6 5 6 7 10 13 14 15
12 10 9 9 10 9 8 7 6 6 6 6 7 7 8 9 11 10 8 7 6 6 6 7 8 11 14 16 18 20 22 22 22 23 22 21 21 20 20 19 19 18 16 15 15 14 14 14 15 14 11 9 7 7 7 7 10 13 15 17 16 16 18 16 13 15 16 18 19 16 11 9 9 8 7 9 10 9 5 3 3 3 3 5 7 10 12 13
13 11 9 9 10 10 9 7 6 6 6 6 7 8 8 9 11 10 8 8 6 7 9 11 14 16 17 18 20 22 24 23 23 23 23 22 22 21 21 20 19 18 17 18 15 14 14 15 13 10 9 9 9 9 7 7 9 13 18 19 17 14 17 18 17 18 18 18 18 16 12 10 11 10 8 8 9 9 6 3 2 2 2 2 3 6 9 10
13 12 10 9 10 10 9 7 6 6 7 7 6 7 8 9 9 8 8 9 8 9 11 15 17 17 17 18 19 22 24 25 26 26 25 24 24 23 22 21 19 18 19 17 14 12 13 12 9 9 11 11 10 10 7 5 7 11 16 18 16 15 18 20 21 21 20 18 18 16 14 12 13 12 10 9 9 9 8 7 6 5 4 3 2 2 5 7
14 13 11 10 10 11 9 7 6 6 7 7 6 6 6 8 9 8 8 9 10 11 12 15 17 17 17 17 19 21 23 25 27 27 27 26 25 23 21 20 19 18 16 13 10 8 9 8 8 10 12 10 10 9 6 5 6 8 10 13 15 20 23 24 24 24 21 19 18 16 16 14 14 15 14 12 11 10 10 9 8 8 7 6 5 3 3 4
14 14 12 10 10 11 10 7 6 6 7 8 6 5 6 7 9 9 9 9 10 12 14 17 18 17 16 17 19 21 22 25 25 26 27 26 24 22 20 19 17 15 11 8 6 6 7 8 8 10 10 7 7 6 5 7 6 4 3 7 16 23 23 22 24 23 22 21 17 15 16 18 17 17 17 16 13 13 13 10 9 9 9 9 7 6 3 2
15 14 13 11 10 11 10 8 7 6 7 8 6 5 6 7 8 8 9 8 8 13 17 19 19 17 17 18 19 20 23 25 24 25 25 23 21 19 19 18 14 11 7 6 6 7 9 10 9 9 8 6 6 7 8 8 9 11 8 9 17 21 17 16 19 21 22 21 19 16 14 15 21 20 18 18 16 15 15 13 11 10 10 10 8 7 6 4
16 14 14 12 10 10 11 10 8 7 6 6 6 5 5 6 6 7 7 6 7 13 19 20 19 18 19 19 19 21 23 24 24 23 21 20 18 16 16 15 12 8 5 6 5 6 10 10 9 9 7 7 9 12 13 11 13 15 14 14 15 14 11 12 15 20 22 19 18 20 14 10 18 23 20 20 19 18 18 16 14 12 11 12 10 8 8 7
16 15 14 13 11 10 11 11 9 8 7 5 6 5 4 4 4 6 6 2 5 14 20 22 18 17 19 18 19 22 22 24 24 20 18 17 16 14 13 12 11 7 5 5 3 5 11 11 8 8 8 11 14 15 15 13 13 14 15 15 14 12 10 9 12 16 19 14 14 23 21 9 12 20 21 21 21 21 21 19 17 15 14 13 13 11 9 9
17 16 14 14 12 11 10 11 10 10 7 5 5 4 4 4 4 6 5 1 4 15 21 22 18 17 20 17 19 21 20 24 23 18 18 17 15 14 12 10 9 5 4 5 4 5 11 13 9 8 10 13 14 12 12 12 10 10 11 11 12 10 7 6 10 15 16 12 13 23 23 10 8 16 19 22 26 26 25 24 20 18 16 14 14 13 11 10
17 17 15 14 13 11 10 11 11 10 8 6 5 4 4 4 5 7 4 0 7 15 19 21 18 17 20 19 20 20 18 22 20 16 18 17 16 16 13 10 8 6 6 6 5 4 8 11 9 8 11 13 12 10 10 10 9 10 9 9 11 9 7 6 8 16 17 12 14 21 23 13 7 14 18 22 26 23 21 23 23 20 18 15 15 14 11 9
18 18 16 14 14 12 11 12 12 10 9 7 6 5 4 5 7 6 2 2 9 13 17 21 18 16 21 21 22 20 18 22 19 15 17 17 17 16 13 12 10 8 8 7 7 6 7 9 10 11 11 11 10 9 9 8 9 11 10 10 9 7 8 9 11 17 13 8 13 18 23 19 6 9 15 16 17 13 12 18 22 23 22 18 16 15 12 9
18 19 17 15 15 13 12 12 12 10 10 9 7 6 4 6 8 5 1 5 9 10 15 20 17 17 21 23 23 22 22 23 20 17 17 18 18 16 14 14 13 11 10 9 9 9 9 10 12 15 14 10 9 9 9 9 10 11 10 9 8 6 9 10 12 14 7 4 8 10 20 25 13 8 9 9 11 11 9 12 15 20 23 21 18 15 13 10
18 19 18 16 15 14 13 13 12 10 10 10 8 6 5 6 8 6 4 6 6 6 11 16 17 19 21 22 22 22 23 23 21 19 19 18 17 17 16 16 15 13 11 11 11 10 10 10 12 15 15 11 9 9 11 12 11 9 8 9 8 5 5 4 5 7 5 5 5 4 12 21 17 13 10 10 12 12 11 9 9 13 17 20 18 15 13 11
18 19 17 16 15 14 14 15 12 10 10 10 9 8 7 5 6 8 7 6 3 3 7 12 16 18 20 22 22 21 21 21 21 21 21 18 16 17 17 16 15 14 11 10 11 11 9 10 13 15 14 11 10 9 10 11 12 10 7 9 8 3 3 2 2 2 5 5 4 3 8 11 12 11 8 10 13 14 13 11 11 13 14 15 14 13 14 12
18 19 17 16 15 14 16 16 13 11 11 11 10 9 9 7 5 7 8 4 1 3 3 7 13 17 19 22 22 21 19 19 20 21 22 20 17 18 18 17 16 16 13 10 11 12 10 9 13 16 13 9 11 10 7 8 12 11 8 6 7 6 3 3 4 3 3 4 5 6 7 5 6 5 6 8 10 11 12 12 16 18 17 16 15 15 15 13
18 18 16 15 15 16 18 17 14 12 12 12 11 11 13 12 6 5 7 4 1 2 1 4 11 16 19 22 22 21 19 18 20 21 21 21 20 18 18 19 18 18 17 14 10 12 13 11 11 14 12 9 9 9 9 10 10 6 7 7 7 8 7 4 4 4 2 3 3 6 6 7 8 9 10 9 10 11 11 12 18 21 21 21 20 19 17 13
17 17 16 16 16 17 19 17 14 14 13 12 13 15 16 15 8 5 7 3 2 0 1 3 10 15 18 21 22 22 19 18 20 22 21 22 22 20 18 18 18 19 20 18 13 12 14 12 11 13 13 10 10 12 13 12 8 4 5 8 7 7 8 5 4 2 1 1 2 5 7 10 10 10 8 8 9 10 10 12 16 20 22 23 21 20 17 13
16 17 17 16 16 17 19 17 15 15 14 13 15 17 17 15 11 7 6 4 4 2 1 1 7 13 15 19 20 21 20 18 19 22 23 22 20 21 21 19 18 19 20 20 18 15 13 12 11 13 14 13 15 15 12 11 9 5 4 6 6 6 6 5 2 2 2 0 3 5 8 11 9 6 8 11 11 8 8 10 13 18 21 20 19 18 16 14
15 16 17 16 16 18 18 17 16 16 15 16 18 18 16 16 14 10 9 7 5 3 3 2 5 9 10 14 17 17 18 19 18 20 22 21 17 18 21 21 19 19 19 20 20 17 15 12 10 13 15 16 18 17 14 11 9 7 5 5 6 5 5 6 4 1 1 1 2 4 7 10 10 8 11 13 11 8 7 8 10 13 14 13 14 15 15 15
15 16 16 16 16 18 18 17 17 18 17 18 19 18 17 16 14 11 10 8 5 4 3 1 4 7 7 9 11 12 15 16 17 19 20 20 19 18 18 18 18 18 18 20 20 18 17 14 10 14 18 18 18 18 17 15 12 9 7 7 7 5 5 7 6 4 3 2 1 3 4 8 11 10 13 14 11 8 7 6 6 6 7 7 9 11 13 14
14 15 15 16 16 17 18 18 19 20 19 19 20 19 16 15 13 12 11 10 7 5 5 3 2 5 7 7 7 8 11 9 11 17 20 20 20 19 18 17 18 19 19 20 21 20 19 17 14 15 18 18 19 20 19 16 14 12 11 10 11 10 7 7 7 6 4 2 3 1 3 10 13 13 15 13 9 8 6 5 4 5 6 7 8 10 12 14
14 15 15 16 17 18 19 20 20 20 20 20 20 19 17 15 13 11 11 12 8 6 6 5 3 3 5 6 5 6 8 6 6 11 16 20 22 19 17 17 18 18 19 22 23 22 21 20 17 17 20 20 20 20 20 16 13 12 12 11 13 13 10 6 4 7 7 5 4 4 4 14 19 16 13 10 7 7 4 4 5 6 7 8 9 10 12 14
14 15 16 17 18 18 19 19 19 20 20 20 20 19 17 17 15 12 12 12 9 7 8 7 5 4 4 6 7 6 7 6 5 7 12 16 19 19 16 16 16 16 18 22 23 23 22 21 19 19 21 22 19 17 18 17 15 13 13 13 13 14 14 8 4 7 10 9 9 6 5 15 20 14 9 7 7 6 4 4 6 6 6 8 10 12 13 15
14 15 17 18 19 19 19 18 19 20 19 19 20 19 17 17 16 13 14 14 11 9 10 8 6 6 6 7 7 8 9 8 5 6 9 11 15 18 16 16 16 15 16 19 20 23 24 21 19 18 17 19 18 14 15 16 17 16 15 16 15 15 15 12 9 10 9 11 12 6 4 14 18 12 8 7 8 10 9 5 4 5 6 8 10 13 15 17
14 15 17 19 20 20 19 18 18 19 19 20 20 18 16 17 16 14 16 17 14 12 12 10 7 7 8 7 8 9 9 9 8 6 6 8 11 15 16 17 17 16 16 17 18 22 22 19 19 15 8 8 9 8 11 16 17 18 17 17 18 17 15 13 13 12 10 14 15 8 7 16 16 10 9 9 12 14 11 6 5 5 6 8 10 14 16 18
15 15 17 19 21 21 20 19 19 18 19 20 19 16 15 16 16 16 18 18 17 15 14 11 9 8 8 8 8 9 9 9 9 7 6 6 7 11 14 16 18 17 17 16 16 19 20 19 21 17 10 8 9 9 15 20 20 19 18 18 18 18 18 16 14 13 12 14 16 14 15 20 17 12 13 13 15 17 13 9 9 8 8 9 10 14 17 20
15 14 16 19 21 21 22 22 22 20 19 18 17 15 15 16 16 17 19 18 17 18 17 13 12 10 9 9 8 9 9 9 9 9 7 6 7 9 10 13 16 16 17 17 17 18 19 18 20 21 18 15 16 17 19 19 19 20 19 19 19 19 19 18 16 16 16 15 17 20 21 21 18 15 14 15 15 14 13 12 13 13 13 11 11 13 17 21
14 14 15 18 19 21 23 24 22 21 20 18 16 14 14 16 16 15 17 17 16 19 19 17 15 13 11 11 10 9 9 9 10 10 9 9 9 9 9 10 13 14 17 18 17 18 20 17 17 18 15 13 14 16 15 14 15 18 19 19 20 19 20 21 20 19 18 15 18 21 20 19 19 16 14 15 15 14 14 14 14 15 15 13 12 14 19 23
15 14 15 18 19 20 23 26 24 22 21 19 17 16 14 15 15 14 15 16 15 17 18 16 17 17 14 13 12 11 10 10 10 11 12 12 11 11 11 11 10 11 14 16 17 17 16 15 15 14 11 10 12 12 12 12 12 14 16 18 19 19 21 23 22 21 19 17 20 21 19 21 23 19 16 15 15 15 16 16 16 15 14 14 15 18 21 24
15 15 15 18 20 20 21 24 25 24 22 21 19 18 15 14 14 13 15 16 16 17 19 17 16 18 17 15 15 13 12 11 11 11 12 14 13 13 13 11 10 12 13 14 15 16 14 11 12 13 12 11 12 13 14 15 15 16 17 17 19 20 22 22 22 21 21 22 23 22 22 26 26 21 17 15 16 17 18 17 17 17 15 15 17 20 22 23
15 16 16 17 20 21 20 21 24 24 23 22 20 19 17 15 13 12 13 16 16 17 20 19 17 17 17 16 17 16 15 15 13 12 12 13 12 13 14 13 12 13 14 14 14 15 14 11 10 12 13 13 14 15 15 17 18 19 19 21 23 24 23 21 21 21 22 23 24 23 25 28 26 21 17 16 17 19 19 16 15 15 14 14 16 20 21 22
16 17 17 17 19 21 21 20 22 23 22 22 21 19 18 16 13 11 12 15 15 15 17 19 18 18 18 17 18 18 18 17 17 16 15 15 13 12 13 14 14 13 14 16 15 15 15 14 12 12 12 13 14 14 14 16 18 20 22 24 26 26 24 23 23 22 22 22 22 24 27 28 25 21 19 19 20 20 19 16 13 12 12 12 14 17 19 20
16 17 18 18 18 19 21 21 22 21 21 22 21 19 18 16 14 12 10 12 13 13 14 16 17 17 17 18 18 18 18 17 18 19 18 17 16 14 14 14 14 14 14 15 16 16 15 15 14 13 13 13 13 12 15 16 14 16 20 21 21 21 21 20 20 19 18 20 22 25 27 25 22 20 20 20 18 15 13 12 11 10 8 7 8 11 15 18
Wind_Direction
292 290 289 289 291 293 292 292 292 291 292 292 293 294 293 288 279 273 269 265 262 259 257 256 255 253 251 247 244 242 242 242 239 241 237 218 206 202 202 198 197 192 184 182 179 176 165 146 134 131 128 127 138 139 111 98 94 96 104 100 94 93 93 102 121 138 128 128 155 168 171 181 170 119 94 65 31 26 23 20 40 99 123 133 118 110 109 109
295 292 291 292 293 294 294 294 293 293 295 296 298 297 294 287 279 274 270 268 265 260 257 255 253 251 248 245 240 238 236 236 235 232 227 215 203 198 199 196 195 187 178 179 179 173 159 145 136 132 128 138 153 150 128 113 105 102 104 94 87 88 83 91 102 104 105 115 133 140 161 180 128 69 77 55 9 31 37 16 93 134 143 155 130 122 127 132
298 295 294 295 295 295 296 295 295 297 299 300 300 298 293 285 279 275 273 270 266 261 258 254 252 248 244 241 236 233 230 230 229 218 217 216 201 195 197 196 195 183 174 176 177 170 157 146 135 130 130 143 152 147 135 121 112 110 105 89 81 82 85 95 94 86 89 99 115 125 146 164 114 84 77 73 65 62 59 62 129 146 156 166 141 132 138 142
301 298 296 296 297 297 298 297 298 301 302 302 301 298 291 284 279 277 276 274 269 264 260 256 251 246 241 236 231 226 224 223 219 209 210 209 195 191 192 193 190 176 173 176 175 169 158 145 134 132 135 143 147 140 134 122 118 119 107 91 81 81 91 98 92 86 91 97 105 111 127 140 111 94 87 83 79 73 70 72 78 92 126 144 138 136 137 139
303 299 298 299 300 300 301 301 303 305 305 304 302 296 288 282 278 281 283 280 275 269 264 258 251 244 237 230 223 218 214 211 205 200 194 183 182 184 183 185 181 172 173 177 174 170 161 151 145 139 134 140 146 139 132 127 127 125 114 95 79 80 91 101 108 102 104 104 100 104 118 123 106 97 92 90 87 82 81 75 72 75 100 117 126 133 136 134
303 299 300 301 301 302 303 305 308 308 307 305 300 291 282 279 281 288 288 285 280 273 266 258 250 241 232 224 215 210 205 199 194 191 179 160 164 176 180 177 172 170 174 176 175 173 167 162 153 139 131 135 144 139 130 130 132 126 118 99 78 81 89 106 124 118 112 109 105 112 115 107 95 86 79 84 88 87 90 86 82 83 97 109 114 127 134 136
301 299 300 302 301 304 306 309 310 308 308 304 295 284 277 278 286 293 292 289 284 275 265 253 244 234 225 216 207 202 199 194 186 182 174 164 164 174 176 168 165 169 173 175 175 174 172 167 153 137 130 130 136 134 128 130 130 123 117 103 98 103 93 110 129 128 120 112 107 109 105 93 76 63 64 74 78 78 87 92 93 94 103 108 107 118 130 139
298 298 300 302 301 305 309 309 309 308 308 301 287 277 272 283 294 299 300 298 289 276 262 246 237 226 216 207 199 195 194 189 180 180 178 174 178 179 170 162 161 166 172 174 173 174 173 167 151 138 132 128 131 131 132 134 130 128 124 115 120 120 105 120 137 136 123 108 110 110 101 87 61 43 57 68 67 63 68 88 95 97 103 103 95 98 111 129
296 297 298 300 301 307 308 307 308 308 306 294 277 269 274 294 302 311 314 310 297 277 255 236 225 215 206 197 191 187 188 185 177 182 185 180 184 182 169 161 161 164 171 173 172 176 173 164 151 142 136 130 130 130 133 139 135 137 140 134 131 127 123 135 142 138 122 101 115 117 100 82 53 41 60 64 61 52 50 76 89 94 100 95 84 80 89 101
294 295 295 297 302 307 306 305 308 308 302 283 267 268 280 301 314 329 337 336 324 282 234 213 206 200 194 187 183 180 182 183 177 180 182 179 182 178 166 162 162 163 169 172 174 177 171 163 155 147 140 134 135 133 131 138 142 145 153 151 143 139 137 147 150 144 132 113 126 125 95 81 57 58 67 65 64 56 52 67 79 89 99 95 82 79 87 93
291 291 293 296 302 306 304 304 307 306 296 272 261 265 280 308 332 3 30 41 47 65 113 165 180 181 178 178 177 174 178 180 175 172 170 169 172 169 164 164 163 164 170 172 174 176 170 164 159 153 145 139 140 136 128 132 143 154 163 160 152 155 152 156 169 165 162 145 148 158 82 78 65 62 65 62 60 59 59 67 75 82 93 97 89 84 89 95
289 290 291 295 302 305 302 303 305 304 291 263 251 251 269 323 7 66 73 68 70 80 90 112 147 163 167 172 174 174 177 176 170 162 161 165 168 166 165 166 164 167 172 174 176 176 172 168 163 159 152 147 143 137 132 128 143 160 169 169 160 165 167 168 182 181 185 184 171 177 74 68 66 62 66 61 54 55 60 68 77 84 91 95 91 90 91 93
287 288 290 295 302 303 300 301 303 301 287 259 237 229 242 320 121 114 98 88 88 94 100 108 126 147 160 168 172 174 175 173 166 159 160 166 169 166 166 167 166 170 175 178 180 179 176 173 170 167 159 154 147 140 138 120 138 164 170 178 168 169 177 179 188 190 202 221 210 203 75 69 72 65 73 70 57 55 63 72 80 87 93 92 90 93 95 94
283 285 288 294 300 300 297 298 301 298 282 254 224 206 193 167 149 137 120 106 100 101 106 116 129 146 161 168 170 173 172 171 166 160 161 167 169 167 167 170 172 175 181 184 184 185 182 178 177 176 167 164 154 145 144 117 134 164 165 180 180 178 183 190 198 205 217 234 230 221 174 89 84 74 81 77 68 66 71 74 78 85 89 90 87 87 91 93
279 282 287 292 297 297 294 296 298 293 279 246 215 192 180 172 156 146 131 117 107 102 101 108 124 142 161 169 171 175 173 171 169 164 164 165 166 167 169 174 179 183 188 192 191 194 195 190 189 184 174 173 165 152 152 136 144 164 167 178 190 190 190 200 208 215 225 240 241 232 206 120 96 93 93 83 75 76 84 81 79 89 91 91 90 90 92 94
273 277 284 290 294 295 293 294 293 287 274 242 215 191 183 178 160 148 140 128 114 107 102 102 113 125 149 168 173 175 173 171 171 168 167 167 166 167 171 177 183 190 195 197 197 201 203 198 193 186 177 178 173 159 159 155 152 164 175 181 193 199 199 205 213 221 226 238 249 244 220 159 105 115 108 91 78 74 87 85 82 95 99 99 99 100 102 98
269 272 280 288 292 292 291 292 289 282 268 241 215 194 189 187 171 149 144 139 125 114 108 105 108 113 131 155 166 171 172 172 172 172 173 175 174 173 177 180 183 187 188 189 191 189 184 183 184 183 181 181 177 170 171 176 168 171 179 183 193 201 205 209 215 222 224 228 240 245 239 227 149 136 119 100 87 78 83 77 73 87 95 99 100 101 103 99
264 265 275 285 289 289 287 287 287 276 262 245 221 202 196 196 190 171 154 147 134 121 113 112 108 107 124 146 161 166 167 168 171 175 179 183 184 183 182 183 184 184 182 183 182 169 166 172 179 183 184 181 181 185 186 180 180 184 186 190 199 206 212 221 226 226 223 223 229 237 240 226 178 151 129 112 97 88 88 71 64 73 86 96 101 100 98 95
260 259 268 280 286 286 284 285 285 274 260 246 229 212 201 201 203 200 186 166 149 135 134 136 126 128 137 144 153 158 161 165 170 178 183 187 186 180 179 182 184 185 185 183 173 165 169 174 179 185 185 183 186 199 202 191 193 197 199 205 213 216 217 223 233 232 222 220 225 231 239 222 178 154 134 122 109 101 105 79 68 74 89 102 104 100 97 95
256 253 258 274 283 282 281 282 280 273 258 243 233 219 208 207 211 213 201 190 183 173 176 173 151 142 140 142 148 153 156 159 165 172 176 178 175 172 175 176 174 173 173 170 164 166 175 177 180 184 180 181 194 200 204 210 208 207 209 215 223 226 218 212 218 227 221 218 222 226 231 209 170 156 142 131 120 114 118 99 88 94 103 114 107 98 98 99
254 250 250 265 278 280 279 279 273 267 256 244 236 227 221 218 220 224 210 199 194 181 176 166 154 149 146 148 152 153 151 151 155 158 161 164 165 164 165 162 159 158 158 160 160 165 177 181 179 176 171 178 194 199 201 208 211 213 216 221 227 226 212 204 207 215 216 213 216 223 221 190 167 163 158 150 137 125 133 151 152 158 146 139 120 103 101 103
253 248 245 255 272 277 277 277 268 259 255 250 242 236 235 229 227 233 225 215 199 181 170 158 154 156 156 159 160 158 155 155 155 156 158 158 157 156 154 152 153 155 158 160 162 168 179 181 169 171 182 183 192 200 197 203 226 231 229 233 233 214 194 195 204 209 211 209 210 220 216 189 174 175 170 170 164 147 155 178 187 191 194 204 209 134 110 108
253 247 243 245 263 274 274 274 268 255 253 253 250 249 247 236 229 235 238 230 210 193 175 159 157 160 163 167 167 165 162 161 160 158 157 154 153 154 153 153 155 157 158 159 164 174 175 165 161 181 190 185 187 192 193 213 241 247 240 234 213 193 184 185 193 201 206 206 209 218 213 195 186 185 182 182 182 174 173 188 196 198 205 209 213 206 156 127
254 246 241 239 254 271 272 269 267 258 251 248 253 264 258 246 238 240 246 240 216 195 177 167 163 160 165 169 170 169 168 166 164 160 158 155 154 153 152 155 157 155 151 146 158 168 151 146 165 184 187 181 175 173 197 216 203 172 203 204 178 174 180 183 185 193 200 202 211 216 206 202 201 197 194 192 192 192 188 195 207 211 215 212 211 218 217 169
255 246 240 236 245 264 270 265 261 261 253 244 246 256 261 257 250 242 241 246 224 190 177 171 164 159 163 166 169 172 172 171 166 161 161 158 154 152 154 158 156 151 144 141 155 159 153 155 165 175 176 177 169 157 174 183 151 137 145 160 157 160 173 181 182 188 192 200 212 208 200 208 211 209 206 201 200 201 198 200 209 216 220 220 216 219 236 248
257 246 239 235 237 254 267 265 258 257 253 244 238 238 250 250 246 234 226 246 230 189 177 172 166 165 162 159 164 171 175 175 169 165 165 162 159 158 161 160 150 146 147 152 166 165 165 166 163 170 168 157 156 151 153 151 142 146 152 155 161 170 181 186 188 190 192 202 210 204 205 218 216 217 218 212 209 209 209 209 212 213 213 218 221 218 228 247
257 248 238 235 233 240 259 264 257 251 248 243 232 230 240 227 223 216 199 243 226 189 179 174 172 171 164 159 166 169 172 176 174 171 170 168 169 169 168 161 149 150 159 170 191 169 172 178 171 177 172 158 162 159 157 159 152 152 158 165 180 190 191 194 196 196 200 208 203 203 211 223 228 228 225 221 218 217 217 216 215 212 206 211 220 218 220 237
258 250 237 234 232 231 248 259 254 249 245 240 232 228 233 215 204 198 176 46 186 181 180 177 174 171 168 167 168 164 167 177 180 179 177 177 179 180 177 170 161 165 187 200 201 171 182 193 197 201 189 173 174 169 166 173 168 162 161 167 179 182 188 199 198 204 211 210 197 203 211 219 249 238 228 225 224 226 228 224 219 212 205 207 215 216 216 226
258 251 237 231 232 227 237 251 252 251 245 240 240 232 229 220 203 191 186 343 175 177 181 180 176 174 174 177 172 164 168 178 182 182 181 185 188 190 189 184 185 197 212 210 190 183 202 206 207 205 193 184 180 169 170 179 180 179 175 176 180 185 201 198 199 210 210 210 214 215 213 211 247 243 230 227 229 237 242 233 224 215 208 208 210 215 215 215
256 252 239 228 229 225 230 243 248 250 244 238 240 234 228 217 197 184 187 198 172 175 185 185 186 184 181 183 180 173 170 176 179 178 183 193 194 197 199 194 196 201 209 215 205 208 218 211 202 192 192 198 196 187 184 185 181 181 182 185 184 183 193 193 202 206 201 217 235 231 220 213 233 255 239 239 248 264 260 237 227 216 210 210 209 212 212 210
255 252 241 227 225 224 226 236 241 244 241 234 235 236 229 209 197 188 181 183 174 175 185 187 192 191 185 184 183 179 174 176 180 182 189 198 199 201 201 195 198 204 212 221 218 215 211 207 202 199 204 212 212 206 190 177 173 171 170 178 176 151 164 183 195 197 198 236 231 233 222 214 218 254 260 274 281 279 261 242 232 218 213 214 214 216 212 210
253 250 243 229 223 221 226 232 233 236 235 229 234 237 228 210 207 212 180 162 167 172 183 189 193 191 187 185 183 180 179 181 184 187 194 200 205 208 204 200 200 204 214 220 218 215 210 208 205 206 209 211 218 207 184 177 174 169 164 172 179 143 143 187 189 192 224 229 219 233 210 208 225 254 268 278 277 274 266 250 227 216 216 216 217 218 214 212
252 248 243 231 221 218 226 229 223 225 227 225 232 232 218 203 213 219 187 150 137 140 174 196 200 197 193 191 188 184 185 189 189 192 197 201 211 214 210 211 210 210 217 217 212 208 205 207 206 207 207 210 224 211 190 187 182 187 188 176 185 145 98 237 246 244 249 221 209 201 184 203 239 257 270 272 273 275 268 244 209 203 211 216 218 217 215 214
252 246 241 233 223 218 223 225 219 218 222 222 227 225 214 204 206 209 188 165 155 141 158 202 203 205 204 199 195 191 193 197 196 198 201 205 214 218 216 214 211 213 219 217 209 202 199 203 206 210 209 210 228 225 211 196 186 199 214 199 213 209 180 230 228 221 225 172 157 168 176 211 239 260 294 286 277 273 264 236 204 197 202 211 217 218 216 213
250 246 239 232 226 221 221 222 218 216 219 220 221 221 219 215 210 190 178 172 160 156 176 219 201 202 208 207 205 204 204 206 204 205 206 210 217 218 215 212 209 213 218 217 209 200 205 212 211 215 217 216 222 209 190 187 179 186 211 216 229 220 211 210 190 197 192 142 170 193 216 255 267 286 296 288 277 269 260 235 209 199 199 205 212 217 218 215
247 245 239 232 228 223 221 221 220 218 219 219 219 225 227 222 215 179 169 179 332 84 171 222 201 199 206 211 213 213 213 214 211 210 213 217 222 221 217 215 215 219 222 218 208 201 207 211 210 216 218 206 192 178 180 195 193 174 208 222 218 207 210 196 160 164 130 105 253 227 247 274 286 297 305 307 297 276 259 244 221 207 205 209 215 219 221 220
245 243 239 234 228 224 221 220 222 222 220 219 222 228 232 229 222 208 198 238 314 316 313 292 192 195 205 210 213 214 213 215 214 215 219 223 227 228 224 224 224 226 229 224 214 212 212 212 216 220 213 193 181 180 185 201 209 209 216 216 207 206 217 209 167 87 79 283 262 243 259 277 282 297 322 324 312 288 263 250 230 216 214 219 226 227 225 223
242 242 239 236 229 225 223 220 221 223 221 221 226 231 234 231 227 229 241 258 276 256 277 326 179 189 205 209 211 214 214 217 217 218 223 226 229 230 229 231 229 227 230 224 216 217 219 220 224 221 209 190 185 193 196 195 210 233 236 213 215 219 208 202 188 128 130 192 272 263 262 268 267 286 323 326 311 287 261 245 236 226 224 230 235 233 227 225
237 238 238 235 229 225 225 221 218 220 222 224 229 232 233 233 231 234 241 243 249 230 206 114 165 177 182 188 196 206 213 219 221 221 226 227 228 232 232 234 230 223 222 221 219 219 220 222 217 207 204 194 192 201 203 199 202 219 228 217 221 227 204 199 196 184 179 175 258 285 272 266 270 292 317 322 310 288 261 240 238 233 231 232 233 235 232 232
231 232 232 229 226 225 225 223 219 219 222 225 231 232 232 234 231 231 234 231 237 231 192 167 172 179 178 176 174 186 197 209 221 225 229 230 232 236 235 234 231 221 218 222 224 221 220 221 212 198 201 201 202 207 210 212 211 215 223 220 218 216 196 191 202 205 201 170 166 173 264 270 279 301 313 314 311 299 275 246 231 219 221 222 223 232 237 240
227 224 225 224 223 223 222 222 222 223 223 225 232 234 233 234 225 217 223 222 222 221 195 182 186 195 205 207 200 195 199 213 230 228 229 231 234 238 236 234 233 227 222 224 225 222 220 221 210 195 200 206 209 211 212 217 222 228 237 238 232 223 207 192 202 215 221 217 196 181 248 273 283 301 312 314 315 305 281 240 225 214 215 218 224 231 237 243
225 221 221 220 221 220 220 222 224 226 226 227 233 237 234 233 226 212 209 211 212 210 201 198 203 210 222 222 219 219 218 228 243 234 230 230 231 234 234 232 235 235 229 228 227 221 218 220 210 197 203 209 213 217 217 219 226 234 242 243 237 227 222 222 224 227 225 226 236 232 250 278 287 299 306 312 324 323 309 269 243 228 220 218 224 232 238 243
224 220 220 218 220 219 218 221 226 229 231 232 235 238 236 232 228 215 206 208 212 212 212 216 215 216 227 222 211 212 214 218 228 229 230 230 227 227 229 231 240 244 233 228 226 216 211 213 205 194 198 207 210 217 223 223 228 233 235 232 230 228 231 237 245 247 232 227 240 239 244 275 285 295 294 299 318 324 323 303 261 243 234 223 225 232 238 241
222 219 219 216 219 221 219 221 225 228 230 233 235 238 237 233 227 215 208 209 209 212 215 216 214 220 226 219 208 209 211 215 220 222 226 229 224 223 224 228 236 242 236 230 223 212 207 204 196 178 159 193 205 211 220 218 221 229 229 226 226 228 233 241 245 244 235 238 242 231 242 267 279 291 289 293 306 311 313 306 290 280 257 241 238 238 239 241
224 220 219 216 216 218 220 223 224 225 228 231 234 236 235 233 228 217 211 211 209 211 212 208 210 220 221 214 213 218 220 220 218 213 215 226 226 224 224 224 226 233 235 229 220 213 209 204 198 188 165 172 195 211 221 219 216 221 224 222 225 229 233 240 243 237 236 242 239 233 250 266 274 283 288 293 301 303 300 292 292 290 271 257 248 242 242 244
228 222 218 217 217 217 220 224 225 226 229 230 232 234 233 230 227 220 215 213 212 213 212 209 209 216 218 214 212 216 221 220 213 203 201 213 222 223 223 218 215 218 220 217 212 211 210 205 207 211 209 209 216 221 224 223 219 220 222 224 228 232 237 240 240 239 244 248 245 248 260 270 273 278 287 292 294 294 290 283 283 282 276 272 265 252 244 244
228 222 215 214 216 218 221 225 226 229 232 233 232 234 231 226 223 219 216 217 217 216 218 218 216 220 224 221 217 215 212 210 207 198 189 192 200 202 202 202 202 206 210 211 209 208 211 208 208 214 219 222 226 224 224 228 228 226 227 230 233 234 237 241 243 248 254 255 255 261 269 274 276 279 286 289 286 284 284 283 284 287 285 282 275 258 245 242
230 224 215 211 211 214 219 223 227 230 233 236 237 236 230 222 217 211 209 215 218 218 219 220 220 223 227 226 225 220 211 206 208 202 191 188 190 191 192 190 192 196 195 197 199 201 205 205 201 203 208 215 223 228 235 241 241 236 233 234 237 237 240 244 248 254 259 260 266 276 281 280 281 283 284 284 281 281 284 283 280 279 278 274 267 256 248 245
233 226 217 213 213 214 217 221 225 231 235 239 243 241 232 221 215 207 201 206 211 214 216 216 216 218 222 227 228 224 216 213 214 210 204 202 202 202 202 198 198 196 189 189 194 197 201 205 202 207 221 232 236 242 247 249 251 252 250 248 251 252 251 251 253 258 264 269 275 282 284 281 283 285 281 280 282 285 289 287 277 270 267 266 262 256 252 249
236 231 223 218 218 218 219 221 224 229 235 239 243 242 234 224 219 212 204 203 204 208 212 214 214 213 214 221 227 225 222 218 216 216 217 217 218 218 219 220 216 210 208 210 210 210 217 222 217 220 229 233 237 240 243 247 252 257 259 259 261 262 261 263 266 268 271 275 279 280 279 280 283 284 282 283 286 288 292 292 282 271 265 261 258 256 255 252
235 234 230 225 222 221 220 221 224 227 231 235 238 237 232 225 218 212 209 208 205 202 205 210 213 213 213 218 223 225 226 223 220 219 220 223 227 228 230 232 229 225 225 227 227 226 230 235 233 232 231 230 235 242 247 253 257 257 258 260 261 263 267 271 271 271 272 274 277 276 275 279 283 284 283 286 290 291 291 291 287 275 265 259 258 260 259 255
236 235 234 232 229 226 223 222 225 226 227 230 232 231 229 225 217 208 204 209 211 205 203 209 212 212 215 219 220 221 225 224 222 222 222 223 226 227 229 231 231 232 235 237 238 237 239 243 241 236 235 238 245 252 257 259 261 259 262 266 266 265 270 271 269 270 272 274 274 272 273 278 282 283 286 289 291 293 295 296 292 279 264 251 254 263 264 256
Height
3171 3170 3169 3169 3168 3167 3166 3165 3164 3163 3162 3160 3160 3159 3159 3159 3158 3157 3157 3156 3157 3157 3156 3156 3157 3158 3159 3160 3161 3162 3163 3163 3164 3165 3166 3167 3168 3169 3171 3172 3173 3174 3175 3176 3177 3178 3179 3180 3180 3181 3182 3183 3183 3184 3184 3184 3184 3184 3184 3184 3184 3185 3186 3186 3186 3187 3188 3188 3188 3190 3191 3193 3194 3194 3193 3193 3193 3192 3192 3191 3191 3191 3192 3193 3193 3193 3194 3193
3169 3168 3168 3167 3166 3165 3164 3163 3162 3161 3160 3159 3158 3157 3157 3156 3156 3155 3154 3154 3154 3154 3154 3154 3154 3155 3156 3157 3159 3160 3161 3162 3163 3164 3164 3165 3166 3168 3169 3170 3172 3173 3174 3176 3177 3178 3179 3180 3181 3182 3182 3183 3183 3184 3184 3184 3184 3184 3185 3185 3185 3186 3186 3187 3188 3188 3189 3189 3190 3191 3193 3195 3195 3194 3194 3194 3193 3192 3192 3191 3191 3191 3192 3193 3193 3194 3194 3194
3168 3167 3166 3165 3165 3164 3163 3162 3160 3159 3158 3157 3156 3155 3155 3154 3153 3153 3152 3152 3152 3151 3151 3151 3152 3153 3154 3155 3157 3158 3159 3160 3161 3163 3163 3163 3165 3167 3168 3169 3171 3172 3174 3175 3176 3177 3178 3179 3181 3181 3182 3182 3183 3183 3184 3184 3184 3185 3185 3185 3186 3186 3187 3188 3189 3189 3190 3190 3191 3192 3193 3195 3195 3194 3194 3194 3193 3192 3192 3192 3191 3191 3192 3193 3193 3194 3194 3194
3167 3166 3165 3164 3163 3162 3161 3160 3159 3158 3157 3156 3155 3154 3153 3152 3152 3151 3151 3150 3150 3150 3149 3150 3150 3151 3152 3153 3155 3157 3158 3159 3160 3161 3162 3163 3164 3165 3166 3168 3169 3171 3173 3174 3176 3177 3178 3179 3180 3181 3181 3181 3182 3183 3183 3184 3184 3185 3186 3186 3186 3187 3188 3189 3190 3190 3191 3192 3192 3193 3193 3195 3195 3194 3194 3194 3193 3192 3192 3192 3192 3192 3192 3193 3193 3194 3195 3195
3165 3164 3164 3163 3162 3161 3160 3159 3157 3156 3155 3154 3153 3153 3152 3151 3150 3150 3150 3149 3149 3148 3148 3148 3148 3149 3150 3151 3153 3155 3157 3158 3159 3160 3162 3162 3163 3164 3165 3167 3168 3171 3172 3174 3176 3177 3178 3179 3179 3180 3180 3181 3182 3183 3183 3184 3185 3185 3186 3187 3187 3188 3188 3189 3191 3191 3192 3193 3193 3193 3194 3195 3195 3195 3195 3195 3194 3193 3193 3193 3192 3193 3193 3193 3194 3195 3195 3195
3164 3163 3162 3161 3161 3159 3158 3157 3156 3155 3154 3153 3152 3151 3151 3150 3150 3149 3149 3148 3147 3147 3146 3146 3147 3147 3148 3150 3152 3154 3156 3157 3158 3159 3161 3162 3162 3164 3165 3166 3168 3170 3172 3174 3175 3177 3178 3178 3179 3179 3180 3181 3182 3183 3183 3184 3185 3186 3187 3187 3188 3189 3190 3190 3192 3192 3193 3194 3194 3194 3195 3196 3196 3196 3195 3195 3195 3194 3194 3194 3193 3193 3193 3193 3194 3195 3195 3196
3163 3162 3161 3161 3160 3158 3157 3156 3155 3154 3153 3152 3151 3151 3150 3149 3149 3148 3147 3147 3146 3145 3145 3145 3145 3145 3147 3148 3150 3152 3154 3156 3157 3159 3161 3162 3162 3163 3164 3166 3168 3170 3172 3173 3175 3176 3177 3177 3178 3179 3180 3180 3181 3182 3183 3184 3185 3186 3187 3188 3189 3190 3191 3191 3192 3193 3194 3195 3195 3196 3196 3196 3197 3197 3196 3196 3196 3195 3195 3194 3194 3194 3194 3194 3194 3195 3196 3196
3162 3161 3160 3160 3159 3158 3156 3155 3154 3153 3152 3151 3150 3150 3149 3149 3148 3147 3146 3145 3144 3143 3143 3143 3143 3144 3145 3147 3149 3151 3153 3155 3157 3158 3160 3162 3163 3164 3164 3166 3168 3170 3171 3173 3175 3176 3176 3177 3178 3179 3180 3180 3181 3182 3183 3184 3185 3186 3187 3188 3189 3190 3192 3192 3193 3194 3195 3196 3196 3196 3196 3197 3197 3197 3197 3196 3196 3196 3195 3195 3195 3195 3194 3194 3195 3195 3196 3197
3161 3160 3160 3159 3158 3157 3156 3155 3153 3152 3151 3150 3150 3149 3149 3148 3147 3147 3145 3144 3143 3142 3141 3141 3142 3142 3144 3146 3148 3150 3152 3154 3156 3158 3159 3161 3162 3164 3165 3166 3168 3170 3171 3173 3174 3175 3176 3177 3178 3179 3180 3180 3181 3182 3183 3184 3185 3186 3187 3189 3190 3191 3192 3193 3194 3195 3195 3196 3197 3197 3197 3198 3198 3198 3197 3196 3196 3196 3196 3195 3195 3195 3195 3195 3196 3196 3196 3197
3160 3159 3159 3158 3157 3156 3155 3154 3153 3151 3150 3150 3149 3149 3148 3148 3147 3146 3145 3143 3142 3141 3140 3140 3141 3141 3143 3145 3147 3149 3151 3154 3155 3157 3159 3160 3162 3163 3165 3166 3168 3170 3171 3172 3173 3175 3176 3177 3178 3179 3180 3180 3181 3182 3183 3184 3185 3187 3188 3189 3190 3191 3192 3193 3194 3196 3196 3197 3198 3198 3199 3199 3199 3199 3197 3197 3197 3197 3196 3196 3195 3196 3196 3197 3197 3197 3197 3198
3159 3158 3158 3157 3156 3155 3154 3153 3152 3151 3150 3149 3149 3148 3148 3147 3147 3146 3145 3143 3142 3141 3140 3140 3140 3141 3142 3144 3146 3148 3150 3152 3154 3156 3158 3159 3161 3163 3165 3166 3168 3170 3171 3172 3173 3175 3176 3177 3178 3179 3180 3181 3182 3183 3184 3185 3186 3187 3188 3189 3191 3192 3193 3194 3195 3196 3197 3197 3199 3200 3200 3200 3200 3199 3198 3197 3197 3197 3197 3196 3196 3196 3197 3197 3198 3198 3198 3198
3159 3158 3157 3156 3155 3154 3153 3152 3151 3150 3149 3149 3148 3148 3147 3147 3146 3146 3145 3144 3142 3141 3141 3141 3141 3141 3142 3144 3145 3147 3149 3152 3154 3156 3157 3159 3161 3163 3165 3166 3168 3169 3170 3172 3173 3174 3176 3177 3178 3179 3180 3181 3182 3183 3184 3185 3187 3188 3189 3190 3191 3192 3193 3194 3195 3196 3197 3198 3199 3200 3200 3201 3200 3199 3198 3198 3198 3197 3198 3197 3197 3196 3197 3198 3198 3199 3199 3199
3158 3157 3156 3155 3154 3153 3152 3152 3151 3150 3149 3148 3148 3148 3147 3147 3146 3146 3145 3144 3143 3142 3142 3141 3142 3142 3143 3144 3145 3147 3149 3152 3154 3156 3157 3159 3161 3163 3165 3166 3167 3168 3170 3171 3173 3174 3175 3177 3178 3179 3180 3181 3182 3183 3184 3186 3187 3188 3189 3190 3191 3193 3194 3194 3195 3196 3197 3198 3198 3199 3200 3201 3201 3200 3199 3198 3198 3198 3198 3198 3198 3197 3198 3198 3198 3199 3199 3199
3157 3156 3155 3154 3153 3152 3152 3151 3150 3149 3148 3148 3147 3147 3147 3146 3146 3146 3145 3144 3144 3143 3142 3142 3142 3143 3143 3144 3146 3147 3149 3151 3154 3156 3158 3160 3161 3163 3165 3166 3167 3168 3170 3171 3173 3174 3175 3177 3178 3179 3180 3181 3182 3183 3185 3186 3187 3188 3190 3191 3192 3192 3193 3194 3195 3196 3197 3197 3198 3199 3200 3201 3201 3201 3200 3199 3199 3199 3199 3199 3198 3198 3198 3198 3199 3199 3199 3200
3156 3155 3154 3153 3152 3152 3151 3150 3149 3148 3148 3147 3147 3147 3146 3146 3146 3146 3145 3145 3144 3144 3143 3143 3143 3143 3144 3144 3146 3147 3149 3151 3153 3156 3158 3159 3161 3163 3164 3166 3167 3169 3170 3171 3173 3174 3175 3177 3178 3179 3180 3181 3182 3183 3185 3187 3188 3188 3189 3191 3192 3192 3193 3194 3195 3196 3196 3197 3198 3199 3200 3200 3201 3201 3200 3199 3199 3200 3200 3200 3200 3199 3199 3199 3199 3199 3200 3200
3155 3154 3154 3153 3152 3151 3150 3149 3149 3148 3147 3147 3146 3146 3146 3146 3146 3146 3145 3145 3144 3144 3144 3144 3143 3143 3144 3145 3145 3147 3149 3151 3153 3155 3157 3159 3161 3162 3164 3166 3167 3169 3170 3171 3173 3174 3175 3177 3178 3179 3180 3181 3182 3183 3185 3186 3187 3188 3189 3190 3191 3192 3193 3193 3194 3195 3196 3197 3197 3198 3200 3200 3200 3200 3199 3199 3199 3200 3201 3201 3201 3201 3200 3200 3200 3200 3200 3201
3154 3153 3153 3152 3151 3150 3149 3149 3148 3147 3147 3146 3146 3146 3146 3146 3146 3146 3145 3145 3145 3144 3144 3144 3144 3144 3144 3144 3145 3146 3148 3150 3152 3155 3157 3158 3160 3162 3164 3166 3167 3169 3170 3171 3173 3174 3175 3177 3178 3179 3180 3181 3182 3183 3184 3185 3186 3188 3189 3189 3190 3191 3191 3192 3193 3194 3195 3196 3197 3198 3199 3200 3200 3200 3199 3198 3199 3199 3201 3201 3201 3201 3201 3201 3201 3201 3201 3201
3152 3152 3152 3151 3150 3149 3148 3148 3147 3147 3146 3146 3145 3145 3145 3145 3146 3146 3145 3145 3145 3145 3145 3145 3144 3144 3145 3145 3145 3146 3148 3150 3152 3154 3156 3158 3160 3162 3163 3165 3167 3168 3170 3171 3172 3173 3175 3176 3177 3178 3179 3180 3181 3182 3183 3184 3185 3186 3187 3188 3189 3189 3190 3191 3192 3192 3194 3195 3196 3197 3198 3199 3200 3199 3198 3198 3198 3199 3201 3201 3201 3201 3201 3201 3201 3201 3202 3202
3151 3151 3151 3150 3149 3148 3148 3147 3147 3146 3146 3145 3145 3145 3145 3145 3145 3145 3145 3145 3145 3145 3145 3145 3145 3145 3145 3145 3145 3146 3148 3150 3152 3154 3156 3158 3160 3162 3163 3165 3166 3168 3169 3171 3172 3173 3175 3176 3177 3178 3179 3180 3181 3182 3183 3183 3184 3185 3186 3187 3188 3188 3188 3190 3191 3192 3193 3194 3195 3196 3197 3198 3199 3199 3198 3197 3198 3199 3200 3201 3201 3201 3201 3201 3201 3202 3202 3202
3150 3150 3150 3149 3148 3147 3147 3146 3146 3145 3145 3145 3144 3144 3144 3145 3145 3145 3145 3145 3145 3145 3145 3145 3145 3145 3145 3146 3146 3147 3148 3150 3152 3154 3156 3158 3160 3161 3163 3165 3166 3168 3169 3171 3172 3173 3174 3175 3176 3178 3179 3180 3181 3181 3182 3182 3183 3183 3184 3185 3186 3186 3187 3189 3191 3191 3192 3193 3194 3195 3197 3198 3198 3198 3198 3197 3197 3198 3200 3201 3201 3201 3201 3201 3201 3202 3202 3202
3149 3149 3149 3148 3148 3147 3146 3146 3145 3145 3144 3144 3144 3144 3144 3144 3144 3144 3145 3145 3145 3145 3145 3145 3145 3146 3146 3147 3147 3148 3149 3151 3153 3154 3156 3158 3159 3161 3163 3165 3166 3168 3169 3171 3172 3173 3174 3175 3176 3178 3179 3179 3180 3180 3181 3181 3181 3181 3182 3182 3184 3185 3186 3188 3189 3190 3191 3193 3194 3195 3196 3197 3197 3197 3198 3198 3197 3198 3199 3201 3201 3201 3201 3201 3201 3201 3201 3202
3148 3148 3147 3147 3147 3146 3145 3145 3145 3144 3144 3144 3144 3144 3144 3144 3144 3144 3144 3144 3145 3145 3145 3145 3146 3146 3147 3147 3148 3149 3150 3151 3152 3154 3156 3158 3160 3162 3163 3165 3167 3168 3169 3171 3172 3173 3174 3175 3176 3177 3177 3178 3179 3179 3179 3179 3179 3179 3179 3180 3181 3182 3185 3187 3188 3189 3191 3192 3193 3194 3195 3196 3196 3197 3197 3197 3198 3198 3199 3200 3200 3201 3201 3201 3201 3201 3201 3202
3146 3146 3146 3146 3146 3145 3145 3144 3144 3144 3143 3143 3143 3143 3143 3143 3143 3143 3143 3143 3144 3144 3145 3145 3146 3146 3147 3148 3149 3150 3151 3152 3153 3154 3156 3158 3160 3162 3164 3165 3167 3168 3169 3171 3171 3172 3173 3174 3175 3176 3176 3177 3178 3178 3178 3178 3178 3177 3177 3178 3178 3179 3181 3184 3186 3188 3190 3191 3193 3194 3195 3195 3195 3196 3196 3197 3197 3198 3198 3199 3199 3200 3200 3200 3200 3201 3201 3201
3144 3145 3145 3145 3145 3145 3144 3144 3143 3143 3143 3143 3143 3143 3143 3143 3143 3143 3143 3143 3143 3143 3144 3145 3145 3146 3147 3148 3149 3151 3152 3153 3154 3155 3157 3159 3161 3162 3164 3165 3167 3168 3169 3170 3170 3171 3172 3173 3174 3175 3176 3176 3177 3177 3177 3177 3177 3176 3177 3177 3177 3179 3181 3183 3185 3187 3189 3191 3192 3193 3194 3194 3194 3194 3195 3196 3197 3197 3197 3197 3198 3199 3199 3199 3199 3200 3200 3200
3143 3143 3143 3144 3144 3144 3143 3143 3143 3142 3142 3142 3142 3142 3142 3142 3142 3142 3142 3142 3142 3142 3143 3144 3145 3146 3147 3148 3150 3151 3153 3154 3155 3157 3158 3160 3161 3162 3164 3165 3167 3168 3168 3169 3169 3170 3171 3172 3173 3174 3175 3175 3176 3176 3176 3176 3176 3176 3177 3178 3178 3180 3182 3184 3185 3186 3188 3189 3190 3192 3193 3193 3192 3193 3193 3194 3195 3196 3196 3196 3197 3197 3198 3198 3198 3199 3199 3199
3141 3141 3142 3142 3143 3143 3142 3142 3142 3142 3141 3142 3142 3142 3142 3142 3142 3142 3142 3141 3141 3141 3142 3144 3145 3146 3147 3148 3150 3151 3153 3155 3156 3157 3159 3160 3162 3163 3164 3165 3166 3167 3167 3168 3169 3170 3171 3172 3173 3174 3174 3175 3175 3176 3176 3176 3176 3177 3178 3179 3181 3181 3182 3183 3184 3185 3186 3187 3188 3190 3190 3191 3191 3191 3192 3193 3194 3194 3195 3195 3195 3196 3197 3197 3198 3198 3198 3198
3140 3139 3140 3141 3141 3142 3142 3141 3141 3141 3141 3141 3141 3141 3141 3141 3141 3141 3141 3141 3140 3140 3142 3143 3144 3145 3147 3148 3149 3151 3152 3154 3156 3157 3159 3160 3161 3162 3163 3165 3166 3166 3167 3168 3169 3169 3170 3171 3172 3173 3174 3175 3175 3175 3176 3176 3177 3178 3179 3180 3181 3181 3182 3182 3183 3184 3184 3186 3187 3188 3188 3189 3189 3189 3190 3191 3192 3192 3193 3193 3194 3194 3195 3196 3196 3197 3197 3197
3138 3138 3138 3139 3140 3140 3141 3140 3140 3140 3140 3140 3140 3141 3141 3141 3141 3141 3142 3141 3139 3139 3141 3142 3144 3145 3146 3148 3149 3151 3152 3154 3155 3157 3158 3160 3161 3162 3163 3164 3166 3166 3167 3167 3168 3169 3170 3171 3172 3172 3173 3174 3175 3176 3176 3177 3178 3178 3179 3180 3181 3181 3182 3182 3183 3183 3184 3185 3186 3186 3187 3189 3187 3186 3188 3189 3189 3189 3189 3190 3192 3193 3193 3194 3195 3196 3196 3196
3136 3136 3137 3137 3138 3139 3139 3139 3139 3139 3139 3140 3140 3140 3140 3140 3141 3141 3141 3141 3138 3138 3140 3142 3143 3145 3146 3147 3149 3150 3152 3154 3155 3156 3158 3159 3160 3161 3162 3164 3165 3165 3166 3166 3167 3168 3169 3170 3171 3172 3173 3174 3175 3176 3176 3177 3177 3178 3178 3179 3180 3181 3181 3182 3182 3183 3184 3184 3184 3184 3185 3186 3185 3184 3185 3186 3185 3185 3186 3188 3190 3192 3192 3193 3193 3194 3194 3195
3135 3134 3135 3136 3136 3137 3138 3138 3138 3138 3139 3139 3139 3139 3139 3140 3140 3141 3141 3139 3137 3138 3140 3141 3143 3144 3145 3146 3148 3149 3151 3153 3155 3156 3157 3158 3159 3160 3162 3163 3164 3165 3165 3166 3166 3167 3168 3169 3170 3171 3173 3174 3174 3175 3175 3176 3177 3177 3178 3178 3179 3180 3180 3181 3182 3182 3184 3184 3182 3182 3183 3184 3183 3181 3181 3182 3181 3182 3184 3186 3187 3189 3190 3191 3191 3192 3193 3194
3133 3133 3133 3134 3134 3135 3136 3137 3137 3138 3138 3138 3138 3139 3139 3139 3139 3140 3139 3138 3137 3138 3139 3140 3142 3143 3144 3146 3147 3148 3150 3151 3153 3155 3156 3157 3158 3159 3160 3161 3162 3164 3165 3165 3166 3166 3167 3168 3169 3171 3172 3173 3174 3174 3175 3175 3176 3177 3177 3177 3178 3180 3181 3182 3182 3183 3184 3183 3181 3181 3181 3183 3183 3179 3179 3179 3179 3180 3182 3184 3185 3186 3188 3189 3190 3191 3192 3192
3131 3131 3131 3132 3133 3134 3135 3135 3136 3137 3137 3137 3138 3138 3138 3139 3139 3138 3137 3137 3137 3138 3139 3140 3141 3142 3144 3145 3147 3148 3149 3150 3152 3153 3155 3156 3157 3158 3159 3160 3161 3162 3163 3164 3165 3166 3166 3167 3168 3170 3171 3172 3172 3173 3174 3174 3175 3176 3176 3176 3177 3179 3181 3182 3183 3183 3182 3181 3180 3179 3180 3182 3180 3177 3177 3178 3177 3178 3180 3182 3183 3185 3186 3187 3189 3190 3190 3191
3129 3129 3130 3131 3131 3132 3133 3133 3134 3135 3136 3136 3137 3137 3138 3138 3137 3136 3136 3137 3137 3138 3139 3140 3140 3141 3143 3144 3146 3147 3148 3150 3151 3152 3153 3155 3156 3157 3158 3159 3160 3161 3162 3163 3164 3165 3166 3166 3167 3168 3169 3170 3170 3171 3172 3173 3174 3175 3175 3175 3176 3178 3180 3182 3182 3182 3180 3178 3179 3179 3179 3179 3177 3175 3176 3176 3176 3177 3177 3179 3181 3183 3185 3187 3188 3189 3189 3191
3127 3127 3128 3129 3130 3131 3130 3131 3133 3134 3135 3135 3136 3136 3136 3136 3135 3135 3136 3136 3137 3137 3138 3138 3139 3140 3142 3143 3144 3146 3147 3149 3150 3151 3152 3153 3154 3155 3156 3157 3158 3160 3161 3162 3163 3164 3165 3165 3166 3166 3167 3168 3169 3169 3171 3171 3172 3173 3174 3174 3174 3175 3177 3178 3178 3177 3176 3176 3177 3178 3178 3176 3174 3174 3175 3174 3175 3175 3175 3177 3178 3180 3183 3185 3186 3187 3188 3189
3125 3125 3126 3127 3128 3128 3128 3129 3131 3132 3133 3134 3134 3134 3134 3134 3134 3134 3135 3136 3136 3136 3136 3137 3137 3138 3140 3142 3143 3145 3146 3147 3149 3150 3151 3151 3152 3153 3154 3155 3157 3158 3159 3161 3162 3162 3163 3163 3164 3165 3166 3167 3168 3168 3169 3170 3171 3172 3172 3173 3173 3173 3173 3174 3174 3174 3174 3175 3176 3176 3175 3173 3173 3173 3173 3173 3173 3173 3174 3175 3176 3177 3179 3181 3183 3184 3186 3187
3123 3124 3124 3125 3126 3126 3127 3128 3129 3130 3131 3132 3132 3132 3132 3132 3133 3134 3134 3134 3135 3135 3135 3135 3136 3137 3138 3140 3141 3143 3144 3146 3147 3148 3149 3150 3150 3151 3152 3153 3155 3156 3157 3159 3160 3161 3161 3162 3163 3164 3165 3166 3167 3167 3168 3169 3169 3171 3171 3171 3171 3171 3172 3172 3173 3173 3174 3174 3174 3174 3173 3172 3172 3171 3171 3172 3171 3172 3172 3173 3174 3175 3177 3178 3180 3181 3184 3185
3121 3122 3122 3123 3124 3125 3125 3126 3127 3128 3129 3130 3130 3130 3130 3131 3132 3133 3133 3134 3134 3134 3134 3134 3134 3135 3136 3138 3139 3141 3143 3144 3145 3146 3147 3148 3149 3149 3150 3152 3153 3154 3156 3157 3159 3159 3160 3161 3161 3162 3163 3164 3166 3166 3167 3167 3168 3169 3169 3169 3170 3171 3171 3171 3172 3173 3175 3175 3173 3172 3171 3170 3170 3170 3170 3170 3170 3170 3171 3171 3172 3173 3175 3176 3177 3179 3181 3183
3119 3120 3120 3121 3122 3123 3124 3125 3125 3126 3127 3128 3128 3128 3129 3130 3131 3132 3132 3133 3133 3133 3133 3133 3133 3134 3135 3136 3138 3139 3141 3142 3143 3144 3145 3146 3147 3147 3148 3150 3151 3153 3154 3156 3157 3158 3159 3159 3160 3161 3162 3163 3164 3165 3166 3166 3167 3167 3168 3168 3169 3169 3169 3169 3171 3172 3173 3175 3173 3170 3170 3169 3168 3168 3169 3169 3169 3169 3169 3170 3171 3172 3173 3174 3176 3177 3179 3180
3117 3118 3118 3119 3120 3121 3122 3123 3123 3124 3124 3125 3125 3126 3127 3128 3130 3131 3131 3132 3132 3132 3133 3133 3133 3133 3134 3135 3136 3138 3139 3140 3141 3142 3143 3144 3145 3145 3146 3148 3149 3151 3153 3154 3155 3156 3157 3158 3158 3160 3161 3162 3163 3163 3163 3164 3165 3166 3167 3168 3168 3168 3168 3168 3169 3169 3170 3173 3173 3170 3169 3167 3166 3167 3167 3168 3167 3167 3168 3168 3169 3170 3172 3173 3174 3175 3176 3177
3115 3116 3116 3117 3118 3119 3120 3121 3121 3121 3122 3123 3123 3124 3126 3127 3128 3129 3130 3131 3131 3131 3132 3132 3132 3133 3134 3135 3136 3137 3138 3139 3139 3140 3141 3142 3143 3143 3144 3146 3147 3149 3151 3152 3153 3155 3155 3156 3157 3158 3159 3161 3161 3161 3162 3162 3164 3164 3165 3166 3166 3167 3167 3167 3167 3168 3168 3170 3171 3171 3168 3165 3165 3166 3166 3166 3166 3166 3166 3167 3168 3169 3170 3171 3172 3173 3174 3175
3113 3114 3114 3115 3116 3117 3118 3119 3119 3119 3120 3121 3121 3122 3124 3125 3126 3128 3129 3129 3130 3131 3131 3131 3132 3132 3133 3134 3135 3136 3137 3137 3138 3138 3139 3140 3141 3142 3143 3144 3145 3147 3148 3150 3151 3152 3153 3154 3155 3156 3157 3158 3158 3159 3161 3162 3162 3163 3164 3164 3165 3165 3166 3166 3166 3167 3167 3167 3168 3169 3166 3162 3163 3165 3164 3165 3165 3165 3165 3166 3166 3168 3168 3169 3170 3171 3172 3173
3111 3112 3113 3114 3114 3115 3116 3117 3117 3118 3119 3119 3120 3121 3122 3123 3125 3126 3127 3128 3129 3130 3130 3130 3131 3131 3132 3133 3134 3135 3135 3136 3136 3137 3137 3138 3139 3140 3141 3143 3144 3145 3146 3147 3148 3150 3151 3152 3153 3154 3155 3156 3157 3159 3160 3160 3161 3162 3162 3163 3163 3164 3164 3165 3165 3165 3165 3166 3165 3166 3163 3160 3161 3163 3163 3163 3164 3164 3164 3165 3165 3166 3167 3168 3169 3169 3170 3171
3109 3110 3111 3112 3112 3113 3114 3115 3116 3116 3117 3118 3118 3118 3120 3121 3123 3125 3126 3127 3128 3128 3129 3129 3130 3130 3131 3132 3133 3133 3134 3135 3135 3136 3136 3136 3137 3138 3140 3141 3142 3143 3144 3145 3146 3148 3149 3150 3151 3152 3154 3155 3156 3157 3158 3159 3160 3160 3160 3161 3162 3162 3162 3163 3163 3163 3163 3163 3163 3164 3162 3158 3158 3161 3161 3162 3162 3163 3163 3163 3164 3165 3165 3165 3166 3167 3168 3168
3107 3108 3109 3110 3111 3112 3113 3113 3114 3115 3115 3115 3116 3117 3118 3119 3121 3123 3124 3125 3126 3127 3127 3128 3129 3129 3130 3131 3131 3132 3133 3134 3134 3135 3135 3135 3136 3137 3138 3139 3140 3141 3142 3143 3144 3145 3147 3148 3149 3151 3153 3155 3156 3157 3157 3157 3158 3158 3158 3159 3159 3160 3161 3161 3161 3161 3161 3160 3161 3161 3158 3156 3157 3159 3159 3160 3161 3161 3162 3162 3162 3163 3163 3163 3164 3164 3165 3166
3105 3106 3107 3108 3109 3110 3111 3111 3112 3113 3113 3113 3114 3116 3117 3117 3119 3120 3121 3123 3124 3125 3126 3127 3127 3128 3129 3130 3130 3131 3132 3133 3133 3133 3134 3134 3135 3136 3136 3137 3138 3139 3140 3142 3143 3144 3145 3145 3146 3147 3150 3152 3154 3154 3154 3154 3155 3156 3156 3157 3158 3158 3159 3159 3159 3159 3158 3158 3158 3157 3155 3154 3157 3157 3157 3158 3158 3159 3160 3160 3160 3161 3161 3161 3161 3162 3163 3163
3103 3104 3105 3106 3107 3109 3109 3109 3110 3111 3111 3112 3113 3114 3114 3115 3117 3118 3119 3121 3122 3123 3124 3125 3126 3127 3127 3128 3129 3130 3130 3131 3132 3132 3133 3133 3134 3135 3135 3136 3137 3138 3139 3140 3142 3143 3143 3144 3145 3145 3146 3148 3149 3150 3151 3152 3153 3154 3154 3155 3156 3157 3157 3157 3157 3156 3156 3156 3155 3154 3153 3153 3155 3155 3156 3156 3156 3157 3157 3158 3158 3158 3158 3158 3158 3159 3160 3161
3101 3102 3103 3104 3105 3106 3107 3107 3108 3109 3109 3110 3112 3112 3112 3113 3115 3116 3118 3119 3120 3121 3122 3123 3123 3124 3125 3126 3127 3128 3129 3130 3131 3131 3132 3133 3133 3134 3134 3135 3136 3137 3138 3140 3141 3142 3142 3143 3144 3145 3146 3147 3148 3149 3150 3151 3152 3153 3154 3154 3155 3155 3155 3155 3155 3154 3154 3154 3151 3151 3153 3152 3151 3153 3154 3154 3154 3154 3154 3155 3155 3155 3155 3156 3156 3157 3158 3158
3099 3100 3101 3102 3103 3103 3104 3105 3106 3107 3108 3109 3110 3110 3111 3112 3113 3114 3116 3117 3118 3118 3119 3120 3121 3122 3123 3124 3125 3127 3128 3129 3129 3130 3131 3132 3133 3133 3134 3135 3136 3136 3137 3138 3140 3141 3142 3143 3144 3145 3146 3147 3148 3148 3149 3150 3150 3151 3152 3153 3153 3154 3153 3153 3153 3152 3153 3151 3149 3150 3151 3149 3149 3151 3151 3151 3152 3152 3152 3152 3152 3152 3153 3153 3154 3154 3155 3155
3097 3098 3099 3100 3100 3101 3102 3103 3104 3105 3106 3107 3107 3108 3109 3110 3111 3113 3114 3114 3115 3115 3117 3118 3119 3120 3121 3122 3123 3124 3125 3127 3128 3128 3130 3131 3132 3132 3133 3134 3135 3136 3137 3138 3139 3140 3141 3142 3143 3144 3145 3145 3146 3147 3147 3148 3148 3149 3150 3151 3151 3151 3151 3151 3151 3151 3150 3149 3148 3148 3147 3146 3147 3148 3148 3149 3149 3149 3150 3150 3149 3150 3150 3150 3151 3151 3152 3153
3095 3096 3097 3098 3098 3099 3100 3101 3102 3103 3104 3105 3105 3106 3108 3109 3110 3111 3112 3112 3112 3113 3115 3115 3116 3117 3119 3120 3121 3122 3123 3124 3125 3127 3128 3129 3130 3131 3132 3133 3133 3134 3136 3137 3138 3139 3139 3140 3141 3142 3143 3143 3144 3145 3145 3146 3146 3147 3148 3149 3149 3149 3148 3148 3148 3148 3148 3147 3146 3146 3144 3143 3145 3146 3146 3146 3146 3146 3147 3147 3147 3147 3147 3147 3148 3149 3150 3151
3093 3094 3095 3096 3096 3097 3098 3099 3100 3101 3102 3103 3103 3104 3106 3107 3109 3110 3110 3110 3111 3112 3113 3113 3114 3115 3117 3117 3118 3119 3120 3121 3123 3125 3126 3127 3129 3130 3131 3131 3132 3133 3134 3135 3136 3137 3138 3139 3139 3141 3141 3141 3142 3143 3143 3144 3144 3145 3145 3146 3147 3146 3146 3146 3146 3145 3145 3145 3144 3143 3141 3141 3143 3144 3143 3143 3143 3144 3144 3144 3144 3145 3145 3145 3145 3146 3148 3150
3090 3091 3092 3093 3094 3095 3096 3097 3098 3099 3100 3101 3101 3103 3104 3106 3107 3109 3108 3109 3109 3110 3111 3112 3112 3113 3115 3115 3116 3117 3118 3120 3121 3123 3124 3125 3127 3128 3129 3130 3131 3132 3133 3133 3134 3135 3136 3137 3137 3138 3139 3139 3140 3141 3141 3142 3142 3142 3143 3144 3144 3144 3144 3144 3143 3143 3143 3142 3141 3140 3139 3139 3140 3141 3141 3141 3141 3141 3141 3142 3142 3142 3142 3143 3143 3145 3147 3148